Lid_Strength_Index
2 4 3 4 4 3 3 2 6 -0 -1 5 5 8 6 6 6 5 6 6 7 8 8 9 9 9 8 5 6 8 7 8 11 9 7 6 7 9 9 12 13 12 13 13
3 4 4 4 4 5 0 3 4 -0 1 9 8 6 6 6 6 6 6 7 6 6 8 10 8 8 6 5 6 8 7 9 12 11 9 7 9 8 8 9 10 13 16 13
3 4 4 4 4 4 1 3 8 4 3 3 6 7 7 8 5 6 6 6 6 7 8 7 9 9 7 6 6 7 6 8 10 12 10 8 10 9 8 9 13 13 12 10
3 4 5 4 4 5 1 2 6 5 8 7 6 6 6 8 8 6 5 7 7 8 10 9 9 8 7 6 7 6 7 11 9 9 8 8 9 9 9 9 9 12 11 10
3 4 5 5 4 4 1 4 5 3 5 5 6 7 7 7 7 6 7 7 6 6 9 8 9 7 7 7 6 7 7 11 10 11 8 9 10 9 9 8 9 9 9 9
3 3 4 4 4 3 1 1 1 3 6 6 7 7 7 7 6 6 5 6 6 8 6 5 5 5 5 6 7 8 9 10 11 14 10 11 15 10 9 9 8 8 11 8
3 2 3 4 5 4 0 1 1 6 8 7 7 6 6 6 6 7 5 5 7 5 3 3 4 5 6 6 6 6 10 11 12 15 14 19 9 6 7 8 7 7 7 6
2 2 3 3 3 2 -0 -1 2 5 13 6 6 6 6 5 5 6 6 5 4 2 4 8 11 10 11 10 7 7 7 10 13 16 14 11 9 8 8 9 10 6 7 7
2 2 3 3 4 3 -1 0 -0 2 9 8 5 6 5 7 7 7 6 4 2 4 7 10 15 14 10 11 10 7 8 8 11 14 17 18 10 7 6 6 12 7 6 7
2 2 2 3 4 3 -0 0 -1 2 6 4 4 6 6 4 5 7 6 6 6 4 10 13 14 12 9 12 14 14 13 12 15 14 16 12 7 6 6 13 12 6 6 6
2 2 2 3 3 3 1 1 -1 2 5 4 3 3 5 5 5 8 6 7 7 7 12 13 12 14 10 11 9 11 12 14 15 13 16 17 6 7 11 7 5 5 7 8
2 2 2 2 3 3 3 1 -1 -1 2 4 1 1 1 2 2 4 5 6 6 6 9 10 10 14 12 12 13 7 11 9 11 10 11 6 5 6 5 4 5 6 8 7
2 2 2 2 3 2 2 0 -1 0 4 3 3 4 1 -0 0 -0 5 4 4 5 3 7 9 13 9 14 11 9 7 5 9 9 7 6 6 5 5 4 5 6 7 6
2 2 2 2 3 2 2 0 -1 0 3 11 5 1 2 0 0 1 1 2 2 3 3 8 10 13 6 10 8 8 7 6 8 9 6 6 5 5 5 5 6 7 6 7
3 3 3 2 3 2 -0 -1 -1 -1 3 9 6 2 2 1 1 2 2 2 3 5 8 10 10 6 7 7 8 9 6 7 10 11 6 7 7 6 5 6 6 7 7 8
3 3 2 2 2 2 -0 3 -0 -1 0 5 10 3 3 2 2 2 3 3 3 4 6 8 6 4 6 12 12 6 5 4 4 6 5 6 6 6 5 6 7 7 7 7
4 3 3 2 3 -1 2 3 1 2 -1 6 9 8 4 4 3 2 3 3 4 5 6 8 7 6 6 11 12 6 5 5 6 5 6 8 7 7 6 7 7 7 7 7
4 3 3 3 3 3 1 -1 2 1 2 3 9 9 7 4 6 7 3 6 5 5 6 7 8 6 7 12 7 5 6 6 7 7 6 6 6 6 7 7 7 8 8 8
4 4 4 2 2 3 2 4 2 -1 2 7 10 11 12 5 7 7 7 6 10 5 10 8 7 9 11 8 7 7 7 7 7 7 7 7 8 9 9 9 8 9 8 8
5 4 6 10 8 5 3 2 4 4 4 4 9 6 10 5 9 10 9 9 10 11 9 9 12 12 8 8 7 7 6 6 7 8 9 10 11 10 9 9 8 8 8 7
7 10 11 7 5 6 8 10 8 8 11 9 7 7 8 5 9 11 9 11 11 13 11 11 12 11 8 8 7 7 7 7 8 9 9 9 9 9 9 8 8 8 7 7
7 7 7 7 9 11 11 12 13 13 12 12 12 11 7 9 7 11 12 13 12 14 9 13 14 9 8 8 8 8 8 9 9 9 9 9 8 8 8 8 8 7 7 7
7 11 13 12 13 14 14 15 13 13 12 12 12 13 12 11 10 13 12 13 12 10 14 14 10 8 8 8 8 8 8 9 10 10 9 8 8 7 8 8 7 7 7 5
11 13 14 13 14 13 12 12 12 11 11 12 12 13 12 12 12 12 13 13 11 15 16 13 9 9 8 7 8 8 9 10 10 9 9 8 8 8 7 8 7 8 7 5
10 11 14 13 12 12 12 12 11 11 10 10 11 10 10 12 13 12 13 15 15 14 13 10 8 8 8 9 9 9 9 10 9 8 8 8 8 7 7 6 5 5 6 6
9 11 13 12 12 13 12 12 12 10 10 10 9 12 12 13 12 14 14 14 15 12 10 8 9 9 9 8 8 8 8 8 8 8 7 7 7 7 6 5 5 6 6 6
10 11 10 11 11 11 12 10 10 9 10 12 11 13 13 13 13 14 11 12 10 9 8 8 8 9 8 8 8 8 8 8 7 7 6 6 5 5 5 6 4 4 4 5